Showing default

CHINASAT 6C, 44067

Orbit data source: Space-Track

CHINASAT 6C, 44067 is a payload satellite owned by PLA SSF (CN) in GEO that was launched on Sat, 09 Mar 2019 UTC via a CHANG ZHENG 3B launch vehicle from the Xichang Space Center, China (XSC). Payload-class satellites include a variety of spacecraft equipped with specific instruments for various scientific and technological missions. These include communications satellites like Starlink; space stations such as the ISS; scientific satellites like the Hubble; Earth observation satellites from companies like Planet Labs, Umbra, and HawkEye 360; GPS; miniature CubeSats for education and research; and military/defense satellites.

Not visible in the next 10 days
Identifier
44067, 2019-012A
Orbit
GEO
Country
Flag of CNCN / PRC
Related business
Manufacturer
CAST
Mission
Partially operational Civil Communications
Bus & Motor
DFH-4, DFH-4 LAE
Mass
~5,250 kg wet, ~2,500 kg dry
Launch date (UTC)
2019-03-09 (7 years ago)
Launch vehicle
CHANG ZHENG 3B
Launch site
Xichang Space Center, China (XSC)
Object type
Payload
Rocket body
Debris
Shape & HBR
Box + 2 Pan, 15.0 m
Radar Cross Section
34.063 m², Large (>1 m²)

Expand to show TLE details & history
Last TLE update: 6 hours ago

TLE from 6 hours ago
0 CHINASAT 6C
1 44067U 19012A   25259.60955878 -.00000355  00000-0  00000-0 0  9999
2 44067   0.0168 344.0189 0007244  85.2395 276.4299  1.00270889 23993
Epoch: 2025-09-16T14:37Z
TLE epoch observation values (Epoch: 2025-09-16T14:37:45.878Z)
Latitude
0.00062°
Longitude
130.36841°
Altitude
35,782.913 km
Speed
3.075 km/s
True Right ascension
23h 02m 25s
True Declination
0° 00' 02"
Sunlit
Object was in daylight at epoch
Visualization orbit readout
Latitude
Unknown
Longitude
Unknown
Altitude
Unknown
Speed
Unknown
Apparent Right ascension
Unknown
Apparent Declination
Unknown
Sunlit
N/A
Visualization observer readout
Local Sidereal Time
13:23:54
Azimuth
Unknown
Elevation
Unknown
Doppler factor
Unknown
Orbital elements
Apogee altitude
35,818.462 km
Perigee altitude
35,757.371 km
Semi-major axis
42,166.054 km
Eccentricity
0.00072
Inclination
0.0168°
RAAN
344.0189°
Arg. of periapsis
85.2395°
True anomaly
276.3474°
Mean anomaly
276.4299°
Eccentric anomaly
276.38865°
Mean motion
0.25067 °/min
Orbital period
1,436.16 mins
BSTAR
0
Loading maneuver chart data...
Computing Atmospheric mass density...
Loading historical data...
Loading historical data...
Loading historical data...
Loading historical data...
Loading historical data...
Loading historical data...
Loading historical data...
Other satellites on launch #12 in the year 2019 (2019-03-09 UTC)

Documentation

Showing up to 5 results
|